DateTimeUTC,F1_A11,F1_S11,BsB_S11,BsG_S11,BsR_S11,BbsB_S11,BbsG_S11,BbsR_S11,BaB_A11,BaG_A11,BaR_A11,Tu_S11,T_S11,Uu_S11,U_S11,P_S11,T1_A11
2021-06-12T07:00:00Z,00000200,20000000,,,,,,,0000.24,-000.17,-000.12,17.2,24.1,01.5,01.0,0666.0,30.9
2021-06-12T07:01:00Z,00000200,20000000,,,,,,,-000.04,-000.02,0000.17,17.2,24.2,01.5,01.0,0666.0,30.9
2021-06-12T07:02:00Z,00000200,20000000,,,,,,,-000.21,-000.08,-000.02,17.1,24.2,01.5,01.0,0666.0,31.0
2021-06-12T07:03:00Z,00000200,60000000,,,,,,,0000.51,0000.90,0000.27,17.1,24.2,01.5,01.0,0666.0,30.9
2021-06-12T07:04:00Z,00000200,41000000,0004.00,0002.49,0001.21,0000.28,-000.03,0000.26,0000.33,-000.08,0000.01,17.3,24.0,01.5,01.0,0666.9,30.9
2021-06-12T07:05:00Z,00000200,01000000,0004.14,0002.19,0001.23,0000.28,0000.06,0000.12,0000.22,0000.16,0000.38,17.3,23.9,01.5,01.0,0667.0,30.9
2021-06-12T07:06:00Z,00000200,01000000,0003.47,0002.39,0001.10,0000.39,0000.17,0000.40,0000.56,0000.49,0000.56,17.4,23.9,01.6,01.1,0667.0,30.9
2021-06-12T07:07:00Z,00000200,01000000,0002.66,0002.10,0001.13,0000.51,0000.28,0000.40,0000.03,-000.32,0000.00,17.5,24.0,01.6,01.1,0667.0,31.0
2021-06-12T07:08:00Z,00000200,01000000,0003.07,0002.36,0001.46,0000.44,0000.15,0000.57,0000.04,0000.65,0000.03,17.5,24.0,01.6,01.1,0667.0,31.0
2021-06-12T07:09:00Z,00000200,01000000,0003.88,0002.11,0001.20,0000.13,0000.04,0000.30,0000.44,0000.07,0000.43,17.5,24.0,01.6,01.1,0667.0,31.0
2021-06-12T07:10:00Z,00000200,01000000,0003.29,0002.00,0000.80,0000.12,0000.24,0000.26,0000.25,0000.38,0000.05,17.6,24.0,01.5,01.0,0667.0,31.0
2021-06-12T07:11:00Z,00000200,01000000,0003.27,0002.32,0001.25,0000.36,0000.24,0000.54,0000.42,0000.34,0000.44,17.6,24.0,01.6,01.1,0667.0,31.0
2021-06-12T07:12:00Z,00000200,01000000,0003.39,0001.91,0001.30,0000.49,0000.30,0000.27,0000.02,0000.18,-000.15,17.6,24.0,01.5,01.0,0666.9,31.0
2021-06-12T07:13:00Z,00000200,01000000,0003.34,0001.94,0000.95,0000.52,0000.27,0000.17,0000.50,0000.44,0000.63,17.5,24.0,01.6,01.1,0666.9,31.0
2021-06-12T07:14:00Z,00000200,01000000,0002.87,0001.90,0000.80,0000.28,0000.21,0000.33,-000.36,-000.23,-000.18,17.5,24.0,01.5,01.0,0666.9,31.0
2021-06-12T07:15:00Z,00000200,01000000,0003.56,0002.31,0001.03,-000.06,0000.14,0000.37,0000.99,0000.56,0000.72,17.5,24.0,01.6,01.0,0666.9,31.0
2021-06-12T07:16:00Z,00000200,01000000,0003.06,0002.14,0001.01,0000.25,0000.00,0000.49,0000.01,0000.58,0000.03,17.5,24.0,01.6,01.1,0666.9,31.0
2021-06-12T07:17:00Z,00000200,01000000,0003.33,0001.69,0001.28,0000.00,0000.16,0000.52,0000.10,-000.36,0000.10,17.5,24.0,01.6,01.1,0666.9,31.0
2021-06-12T07:18:00Z,00000200,01000000,0003.20,0002.18,0001.10,0000.19,0000.21,0000.05,0000.19,0000.07,-000.17,17.5,23.9,01.5,01.0,0666.9,31.0
2021-06-12T07:19:00Z,00000200,01000000,0002.79,0002.15,0000.96,0000.48,0000.06,0000.40,0000.33,0000.44,0000.33,17.5,24.0,01.5,01.0,0666.9,31.0
2021-06-12T07:20:00Z,00000200,01000000,0003.37,0002.18,0001.22,0000.64,0000.14,0000.31,0000.53,0000.62,0000.41,17.5,23.9,01.6,01.1,0666.9,31.0
2021-06-12T07:21:00Z,00000200,01000000,0003.65,0002.04,0001.07,0000.51,0000.34,0000.20,0000.05,-000.12,0000.13,17.5,23.9,01.5,01.0,0666.9,31.0
2021-06-12T07:22:00Z,00000200,01000000,0002.63,0001.95,0001.22,0000.50,0000.29,0000.33,0000.07,-000.05,0000.18,17.5,23.9,01.5,01.0,0666.8,31.0
2021-06-12T07:23:00Z,00000200,01000000,0002.92,0001.81,0001.26,0000.15,0000.23,0000.24,-000.25,0000.14,-000.08,17.5,23.9,01.5,01.0,0666.9,31.0
2021-06-12T07:24:00Z,00000200,01000000,0003.26,0001.95,0001.10,0000.25,0000.14,0000.36,0000.67,0000.47,0000.55,17.5,23.9,01.5,01.0,0666.9,31.0
2021-06-12T07:25:00Z,00000200,01000000,0003.38,0001.61,0000.86,0000.47,0000.37,0000.08,0000.16,0000.09,0000.23,17.5,23.9,01.5,01.0,0666.9,31.0
2021-06-12T07:26:00Z,00000200,01000000,0002.39,0001.60,0000.82,-000.10,-000.01,0000.09,0000.00,0000.13,-000.16,17.5,23.9,01.3,00.9,0666.9,31.0
2021-06-12T07:27:00Z,00000200,01000000,0001.49,0001.61,0000.98,-000.16,-000.02,0000.23,0000.09,-000.13,0000.07,17.4,23.9,01.4,01.0,0666.9,30.9
2021-06-12T07:28:00Z,00000200,01000000,0003.00,0001.88,0000.87,-000.03,0000.15,0000.26,0000.37,0000.44,0000.19,17.4,23.9,01.3,00.9,0666.9,31.0
2021-06-12T07:29:00Z,00000200,01000000,0002.64,0001.64,0000.95,0000.30,0000.48,0000.52,0000.43,0000.85,0000.24,17.4,23.9,01.4,00.9,0666.9,30.9
2021-06-12T07:30:00Z,00000200,01000000,0002.07,0001.49,0000.64,-000.04,0000.33,0000.41,-000.08,-000.22,0000.14,17.4,23.9,01.5,01.0,0666.9,30.9
2021-06-12T07:31:00Z,00000200,01000000,0002.38,0001.50,0000.81,0000.10,0000.23,0000.23,0000.16,0000.24,0000.29,17.4,23.9,01.4,00.9,0666.9,30.9
2021-06-12T07:32:00Z,00000200,01000000,0002.02,0001.15,0000.67,0000.49,0000.15,0000.32,0000.14,-000.11,0000.35,17.4,23.9,01.4,00.9,0666.9,30.9
2021-06-12T07:33:00Z,00000200,01000000,0001.22,0001.28,0000.43,0000.13,0000.06,0000.46,0000.23,0000.19,-000.32,17.4,23.9,01.3,00.9,0666.9,30.9
2021-06-12T07:34:00Z,00000200,01000000,0001.70,0001.32,0000.67,0000.38,0000.21,0000.21,0000.15,0000.08,0000.41,17.4,23.8,01.3,00.9,0666.8,31.0
2021-06-12T07:35:00Z,00000200,01000000,0002.34,0001.11,0000.64,0000.36,0000.23,0000.08,0000.28,0000.42,0000.02,17.4,23.8,01.4,00.9,0666.9,31.0
2021-06-12T07:36:00Z,00000200,01000000,0002.32,0001.28,0000.65,0000.88,0000.35,0000.07,0000.51,0000.22,0000.29,17.4,23.8,01.3,00.9,0666.9,30.9
2021-06-12T07:37:00Z,00000200,01000000,0002.04,0001.66,0000.78,0000.32,0000.25,0000.33,0000.14,0000.59,0000.13,17.4,23.8,01.4,00.9,0667.0,30.9
2021-06-12T07:38:00Z,00000200,01000000,0002.15,0001.35,0000.79,0000.18,0000.30,0000.54,0000.09,-000.07,0000.78,17.4,23.8,01.4,01.0,0667.0,30.9
2021-06-12T07:39:00Z,00000200,01000000,0002.17,0001.10,0000.82,-000.20,0000.09,0000.43,0000.55,0000.27,-000.34,17.4,23.8,01.5,01.0,0667.0,30.9
2021-06-12T07:40:00Z,00000200,01000000,0002.54,0001.08,0000.36,0000.21,0000.22,0000.12,-000.18,-000.14,0000.17,17.4,23.8,01.5,01.0,0666.9,31.0
2021-06-12T07:41:00Z,00000200,01000000,0001.65,0001.26,0000.69,0000.48,-000.01,0000.35,0000.07,-000.06,0000.43,17.4,23.8,01.4,01.0,0667.0,31.0
2021-06-12T07:42:00Z,00000200,01000000,0002.03,0001.01,0000.63,0000.64,0000.18,0000.07,0000.53,0000.58,0000.06,17.4,23.8,01.4,01.0,0666.9,30.9
2021-06-12T07:43:00Z,00000200,01000000,0001.44,0001.18,0000.79,0000.59,0000.18,0000.21,0000.25,0000.40,0000.26,17.4,23.8,01.5,01.0,0666.9,30.9
2021-06-12T07:44:00Z,00000200,01000000,0001.96,0001.31,0000.46,0000.28,0000.05,0000.28,0000.16,-000.14,-000.30,17.3,23.8,01.5,01.0,0666.9,30.9
2021-06-12T07:45:00Z,00000200,01000000,0001.62,0001.16,0000.70,0000.35,-000.09,0000.21,0000.01,0000.18,0000.28,17.3,23.8,01.4,01.0,0666.9,30.9
2021-06-12T07:46:00Z,00000200,01000000,0002.79,0001.16,0000.59,0000.46,0000.12,0000.10,0000.45,0000.39,0000.34,17.3,23.8,01.5,01.0,0666.9,31.0
2021-06-12T07:47:00Z,00000200,01000000,0001.45,0001.22,0000.41,-000.15,-000.15,-000.02,0000.59,0000.17,0000.40,17.3,23.8,01.5,01.0,0666.9,31.0
2021-06-12T07:48:00Z,00000200,01000000,0001.87,0001.50,0000.77,0000.38,0000.09,0000.34,0000.13,0000.25,0000.15,17.3,23.8,01.5,01.0,0666.9,30.9
2021-06-12T07:49:00Z,00000200,01000000,0002.08,0001.27,0000.65,0000.12,-000.01,-000.08,0000.03,0000.46,0000.12,17.3,23.8,01.4,01.0,0666.9,30.9
2021-06-12T07:50:00Z,00000200,01000000,0002.36,0001.45,0000.97,0000.30,0000.18,-000.03,0000.42,0000.36,0000.36,17.3,23.7,01.5,01.0,0667.0,30.9
2021-06-12T07:51:00Z,00000200,01000000,0002.53,0001.10,0000.86,0000.07,0000.25,0000.26,0000.18,0000.18,0000.22,17.3,23.7,01.6,01.1,0667.0,30.9
2021-06-12T07:52:00Z,00000200,01000000,0002.13,0001.35,0000.45,0000.34,0000.22,0000.02,0000.23,-000.02,-000.04,17.3,23.7,01.6,01.1,0666.9,30.9
2021-06-12T07:53:00Z,00000200,01000000,0001.64,0001.50,0000.99,-000.02,-000.10,0000.31,0000.18,0000.22,-000.02,17.3,23.7,01.5,01.0,0666.9,30.9
2021-06-12T07:54:00Z,00000200,01000000,0001.23,0001.24,0000.67,0000.12,0000.10,0000.09,0000.16,0000.28,0000.48,17.3,23.7,01.5,01.0,0667.0,30.9
2021-06-12T07:55:00Z,00000200,01000000,0002.37,0001.13,0000.79,0000.30,0000.22,0000.58,0000.11,-000.01,0000.18,17.3,23.7,01.5,01.0,0666.9,30.9
2021-06-12T07:56:00Z,00000200,01000000,0001.86,0001.25,0000.62,0000.84,0000.18,0000.26,0000.42,0000.36,-000.15,17.3,23.7,01.5,01.0,0667.0,30.9
2021-06-12T07:57:00Z,00000200,40000000,,,,,,,0000.21,0000.43,0000.42,17.3,23.8,01.6,01.1,0667.0,30.9
2021-06-12T07:58:00Z,00000200,61000000,,,,,,,-000.04,-000.36,0000.09,17.1,23.9,01.5,01.0,0666.0,30.9
2021-06-12T07:59:00Z,00000200,20000000,,,,,,,-000.46,-000.22,-000.40,17.1,24.0,01.5,01.0,0665.9,30.9
